Location: Ku?niki
(51.4449°N, 17.8974°E)
Time: 04:25:39
(UTC+00:00)

Okean 1 Rocket - Visible Passes

Search period start: 18 January 2021 00:00
Search period end: 28 January 2021 00:00
Orbit: 607 x 634 km, 82.5° (Epoch: 17 January)

Date Brightness Start Highest point End Pass type
(mag) Time Alt. Az. Time Alt. Az. Time Alt. Az.
18 Jan 4.4 03:57:03 30° N 03:57:03 30° N 03:59:20 10° N visible
18 Jan 4.9 05:34:16 12° NW 05:34:16 12° NW 05:35:33 10° NNW visible
19 Jan 6.1 02:38:13 11° NE 02:38:13 11° NE 02:38:31 10° NE visible
19 Jan 4.8 04:15:26 21° N 04:15:26 21° N 04:17:04 10° N visible
19 Jan 6.0 15:50:56 10° NW 15:53:14 14° W 15:55:31 10° WSW visible
20 Jan 5.9 02:56:26 12° NNE 02:56:26 12° NNE 02:56:48 10° NNE visible
20 Jan 5.1 04:33:39 15° NNW 04:33:39 15° NNW 04:34:37 10° N visible
21 Jan 5.8 03:14:32 12° NNE 03:14:32 12° NNE 03:14:50 10° NNE visible
21 Jan 5.3 04:51:45 11° NNW 04:51:45 11° NNW 04:51:56 10° NNW visible
22 Jan 5.7 03:32:34 11° N 03:32:34 11° N 03:32:41 10° N visible
